Regional Weather Roundup
Issued by NWS

Home | Current Version | Previous Version | Graphics & Text | Print | Product List | Glossary Off
Versions: 1 2 3 4 5 6 7 8 9 10 11 12 13 14 15 16 17 18 19 20 21 22 23 24 25 26 27 28 29 30 31 32 33 34 35 36 37 38 39 40 41 42 43 44 45 46 47 48 49 50

000
ASUS43 KTOP 250608
RWRKS

WEATHER ROUNDUP FOR KANSAS
NATIONAL WEATHER SERVICE GOODLAND KS
100 AM CDT THU AUG 25 2016

NOTE:  "FAIR" INDICATES FEW OR NO CLOUDS BELOW 12,000 FEET WITH NO
SIGNIFICANT WEATHER AND/OR OBSTRUCTIONS TO VISIBILITY.

KSZ001>006-013>018-027>032-041>047-250700-
NORTHWEST KANSAS

CITY           SKY/WX    TMP DP  RH WIND       PRES   REMARKS
GOODLAND       CLOUDY    57  50  77 CALM      30.18F
6HR MIN TEMP:  56; 6HR MAX TEMP:  67;

HAYS           MOCLDY    63  50  63 NE3       30.11R
HILL CITY      CLOUDY    64  57  78 CALM      30.12S
6HR MIN TEMP:  61; 6HR MAX TEMP:  69;

RUSSELL        MOCLDY    63  56  78 E7        30.08R
6HR MIN TEMP:  63; 6HR MAX TEMP:  71; 6HR PCP: TRACE;

$$

KSZ061>065-074>080-084>089-250700-
SOUTHWEST KANSAS

CITY           SKY/WX    TMP DP  RH WIND       PRES   REMARKS
DODGE CITY     TSTM      62  62 100 NW8       30.12R FOG
6HR MIN TEMP:  63; 6HR MAX TEMP:  76; 6HR PCP:  0.17;

ELKHART          N/A     63  59  87 N7          N/A
GARDEN CITY    LGT RAIN  62  59  90 NE6       30.14R
6HR MIN TEMP:  62; 6HR MAX TEMP:  74; 6HR PCP:  0.03;

GREAT BEND     CLOUDY    63  54  72 NE8       30.07F
LIBERAL        CLOUDY    66  59  77 N7        30.12F
PRATT          CLOUDY    66  63  89 NE12      30.05S
6HR MIN TEMP:  66; 6HR MAX TEMP:  82;

$$

KSZ066>073-081>083-090>101-250700-
SOUTHEAST KANSAS

CITY           SKY/WX    TMP DP  RH WIND       PRES   REMARKS
CHANUTE        LGT RAIN  73  70  90 MISG      30.03
6HR MIN TEMP:  73; 6HR MAX TEMP:  89; 6HR PCP: TRACE;

COFFEYVILLE    PTCLDY    81  66  60 W6        30.04
6HR MIN TEMP:  81; 6HR MAX TEMP:  93;

HUTCHINSON     CLOUDY    70  65  84 N7        30.05S
6HR MIN TEMP:  69; 6HR MAX TEMP:  80;

MEDICINE LODGE   N/A     72  69  90 N8        30.00R
NEWTON         CLOUDY    69  68  96 E3        30.06R
PARSONS        PTCLDY    74  69  85 NE3       30.05
6HR MIN TEMP:  73; 6HR MAX TEMP:  90;

WICHITA INTL   CLOUDY    74  69  85 S15       30.02F
6HR MIN TEMP:  73; 6HR MAX TEMP:  84; 6HR PCP: TRACE;

WICHITA JABRA  CLOUDY    72  68  87 S13       30.03F
6HR MIN TEMP:  70; 6HR MAX TEMP:  78;

WICHITA MCCONL CLOUDY    73  67  83 S15       30.03F
WINFIELD       LGT RAIN  71  68  90 NE9       30.06F
6HR MIN TEMP:  69; 6HR MAX TEMP:  78; 6HR PCP:  0.94;

$$

KSZ007>012-019>026-033>040-048>060-102>105-250700-
NORTHEAST KANSAS

CITY           SKY/WX    TMP DP  RH WIND       PRES   REMARKS
CONCORDIA      CLOUDY    62  59  90 NE3       30.07F
6HR MIN TEMP:  60; 6HR MAX TEMP:  65;

EMPORIA        CLOUDY    72  71  97 SE3       30.03F
6HR MIN TEMP:  71; 6HR MAX TEMP:  81; 6HR PCP:  0.54;

LAWRENCE       CLOUDY    70  32  24 MISG      30.03R
6HR MIN TEMP:  70; 6HR MAX TEMP:  80;

MANHATTAN      CLOUDY    69  64  84 N3        30.04
6HR MIN TEMP:  68; 6HR MAX TEMP:  73;

MARYSVILLE     CLOUDY    63  63 100 N3        30.07S
OLATHE IND     TSTM      70  69  97 SE3G17    30.04S FOG
6HR MIN TEMP:  70; 6HR MAX TEMP:  82; 6HR PCP:  3.54;

OLATHE EXE     RAIN      69  69 100 E7        30.04S FOG
6HR MIN TEMP:  69; 6HR MAX TEMP:  85; 6HR PCP:  2.29;

SALINA         CLOUDY    67  63  87 N5        30.06F
6HR MIN TEMP:  66; 6HR MAX TEMP:  74;

TOPEKA BILLARD CLOUDY    72  70  93 CALM      30.01F
6HR MIN TEMP:  71; 6HR MAX TEMP:  79; 6HR PCP:  0.07;

TOPEKA FORBES  HVY RAIN  72  70  93 CALM      30.02F
6HR MIN TEMP:  71; 6HR MAX TEMP:  78; 6HR PCP:  0.11;

$$




USA.gov is the U.S. government's official web portal to all federal, state and local government web resources and services.